Regional Weather Roundup
Issued by NWS Memphis, TN

Home | Current Version | Previous Version | Text Only | Print | Product List | Glossary On
Versions: 1 2 3 4 5 6 7 8 9 10 11 12 13 14 15 16 17 18 19 20 21 22 23 24 25 26 27 28 29 30 31 32 33 34 35 36 37 38 39 40 41 42 43 44 45 46 47 48 49 50
000
ASUS44 KMEG 250400
RWRMEG
MEMPHIS CWA HOURLY WEATHER ROUNDUP
NATIONAL WEATHER SERVICE MEMPHIS TN
1100 PM CDT WED MAY 24 2017

...WEST TENNESSEE...

CITY           SKY/WX    TMP DP  RH WIND       PRES   REMARKS
MEMPHIS INTL   MOCLDY    58  51  78 W6        29.66R
NWS MEMPHIS      N/A     54 N/A N/A MISG        N/A
JACKSON        CLOUDY    57  51  80 SW6       29.64R
DYERSBURG        N/A    N/A N/A N/A MISG        N/A


...EASTERN ARKANSAS...

CITY           SKY/WX    TMP DP  RH WIND       PRES   REMARKS
JONESBORO      CLEAR     57  50  77 W7        29.67R
WEST MEMPHIS   PTCLDY    56  53  90 VRB3      29.66R
BATESVILLE     CLEAR     54  48  82 W3        29.70R
WALNUT RIDGE   CLEAR     55  46  71 W8        29.67R
BLYTHEVILLE    CLEAR     56  53  90 W7        29.64R
SEARCY         CLEAR     55  51  86 CALM      29.71R
STUTTGART      CLEAR     57  45  62 W6        29.71R
PINE BLUFF     CLOUDY    60  51  72 NW6       29.72R
MONTICELLO     CLEAR     56  51  84 W3        29.72R


...NORTH MISSISSIPPI...

CITY           SKY/WX    TMP DP  RH WIND       PRES   REMARKS
TUPELO         PTCLDY    57  54  89 SW3       29.67R
TUNICA         CLEAR     54  52  94 W5        29.69S
CLARKSDALE       N/A     57  57 100 MISG      29.69R
GREENWOOD      CLOUDY    56  53  90 SW8       29.71R
COLUMBUS       CLOUDY    58  57  99 W7        29.68R
STARKVILLE     LGT RAIN  55  54  94 CALM      29.71R
GOLDEN TRIANGL CLOUDY    57  50  77 W6        29.66R


...SOUTHEAST MISSOURI...

CITY           SKY/WX    TMP DP  RH WIND       PRES   REMARKS
KENNETT        CLEAR     59  50  72 NW7       29.63R
MALDEN         CLEAR     59  50  72 W8        29.64R
WEST PLAINS    CLEAR     52  49  89 VRB5      29.69R
POPLAR BLUFF   CLEAR     55  49  80 W5        29.64R
CAPE GIRARDEAU CLEAR     56  48  74 W9        29.60R


...NORTHWEST ALABAMA...

CITY           SKY/WX    TMP DP  RH WIND       PRES   REMARKS
MUSCLE SHOALS  CLOUDY    57  53  86 NW5       29.65R


...MIDDLE TENNESSEE...

CITY           SKY/WX    TMP DP  RH WIND       PRES   REMARKS
NASHVILLE      CLOUDY    58  55  90 VRB5      29.59R
CLARKSVILLE    CLOUDY    57  55  93 SW3       29.58R


...WESTERN KENTUCKY...

CITY           SKY/WX    TMP DP  RH WIND       PRES   REMARKS
PADUCAH        CLEAR     56  49  77 W6        29.58R


...CENTRAL ARKANSAS...

CITY           SKY/WX    TMP DP  RH WIND       PRES   REMARKS
LITTLE ROCK    CLEAR     57  53  86 W5        29.72R


SKY/WX REPORTED AS FAIR MEANS FEW OR NO CLOUDS BELOW
12 THOUSAND FEET.





USA.gov is the U.S. government's official web portal to all federal, state and local government web resources and services.